Flint, MI

9:14 AM EDT on October 20, 2017 (GMT -0400)
Bishop International

Weather History for KFNT - January, 2013

Change the Weather History Date:

Friday, January 18, 2013

  Actual Average Record
Temperature  
Mean Temperature 23 °F 22 °F  
Max Temperature 37 °F 29 °F 60 °F (1996)
Min Temperature 9 °F 15 °F -25 °F (1976)
Degree Days  
Heating Degree Days 42 43  
Month to date heating degree days 634 763  
Since 1 July heating degree days 2994 3408  
Cooling Degree Days 0 0  
Month to date cooling degree days 0 0  
Year to date cooling degree days 0 0  
Moisture  
Dew Point 14 °F    
Average Humidity 63    
Maximum Humidity 83    
Minimum Humidity 43    
Precipitation  
Precipitation 0.01 in 0.05 in 1.34 in (1949)
Month to date precipitation 1.33 1.01  
Year to date precipitation 1.33 1.01  
Snow  
Snow 0.30 in 0.40 in 5.00 in (1960)
Month to date snowfall 2.0 7.6  
Since 1 July snowfall 13.1 22.3  
Snow Depth 1.00 in    
Sea Level Pressure  
Sea Level Pressure 30.25 in    
Wind  
Wind Speed 11 mph (SSW)    
Max Wind Speed 25 mph    
Max Gust Speed 37 mph    
Visibility 9 miles    
Events Snow    
T = Trace of Precipitation, MM = Missing Value Source: NWS Daily Summary

Daily Weather History Graph

Daily Weather History Graph

Search for Another Location

Airport or City:

Trip Planner

Search our weather history database for the weather conditions in past years. The results will help you decide how hot, cold, wet, or windy it might be!

Date:

Astronomy

Jan. 18, 2013 Rise Set
Actual Time 8:01 AM EST 5:29 PM EST
Civil Twilight 7:30 AM EST 6:01 PM EST
Nautical Twilight 6:55 AM EST 6:35 PM EST
Astronomical Twilight 6:21 AM EST 7:09 PM EST
Moon 11:26 AM EST (1/18) 12:31 AM EST (1/18)
Length of Visible Light 10h 30m
Length of Day
9h 28m
Waxing Crescent, 47% of the Moon is Illuminated
Jan 18
Waxing Crescent
Jan 18
First Quarter
Jan 26
Full
Feb 3
Last Quarter
Feb 10
New

Hourly Weather History & Observations

Time (EST) Temp. Windchill Dew Point Humidity Pressure Visibility Wind Dir Wind Speed Gust Speed Precip Events Conditions
12:53 AM 17.1 °F 6.6 °F 8.1 °F 68% 30.36 in 10.0 mi WNW 8.1 mph - N/A   Overcast
1:53 AM 17.1 °F 6.6 °F 8.1 °F 68% 30.39 in 10.0 mi WNW 8.1 mph - N/A   Overcast
2:53 AM 17.1 °F 7.6 °F 9.0 °F 71% 30.41 in 10.0 mi NW 6.9 mph - N/A   Overcast
3:53 AM 17.1 °F 6.6 °F 8.1 °F 68% 30.42 in 10.0 mi WNW 8.1 mph - N/A   Overcast
4:53 AM 15.1 °F 7.7 °F 7.0 °F 70% 30.42 in 10.0 mi NW 4.6 mph - N/A   Partly Cloudy
5:53 AM 15.1 °F - 7.0 °F 70% 30.44 in 10.0 mi Calm Calm - N/A   Clear
6:53 AM 12.9 °F - 7.0 °F 77% 30.45 in 10.0 mi Calm Calm - N/A   Clear
7:53 AM 9.0 °F 2.4 °F 5.0 °F 84% 30.45 in 10.0 mi South 3.5 mph - N/A   Clear
8:53 AM 16.0 °F 7.4 °F 10.9 °F 81% 30.44 in 10.0 mi South 5.8 mph - N/A   Scattered Clouds
9:53 AM 19.0 °F 11.1 °F 10.9 °F 71% 30.43 in 10.0 mi South 5.8 mph - N/A   Overcast
10:53 AM 21.0 °F 10.6 °F 10.9 °F 65% 30.41 in 10.0 mi South 9.2 mph - N/A   Mostly Cloudy
11:53 AM 24.1 °F 12.5 °F 12.9 °F 62% 30.37 in 10.0 mi South 12.7 mph 19.6 mph N/A   Overcast
12:30 PM 24.8 °F 13.4 °F 15.8 °F 69% 30.29 in 2.5 mi SSW 12.7 mph - N/A   Haze
12:49 PM 24.8 °F 14.0 °F 17.6 °F 74% 30.26 in 1.2 mi South 11.5 mph 19.6 mph 0.00 in Snow Light Snow
12:50 PM 25.0 °F 13.1 °F 17.1 °F 72% 30.30 in 1.5 mi SSW 13.8 mph 19.6 mph 0.00 in Snow Light Snow
1:11 PM 24.8 °F 15.3 °F 17.6 °F 74% 30.23 in 3.0 mi South 9.2 mph 19.6 mph 0.00 in Snow Light Snow
1:26 PM 26.6 °F 16.2 °F 19.4 °F 74% 30.21 in 10.0 mi South 11.5 mph 19.6 mph 0.00 in   Overcast
1:53 PM 27.0 °F 15.2 °F 18.0 °F 69% 30.22 in 10.0 mi South 15.0 mph - 0.00 in   Overcast
2:53 PM 30.9 °F 21.2 °F 16.0 °F 54% 30.16 in 10.0 mi SSW 12.7 mph 20.7 mph N/A   Overcast
3:53 PM 34.0 °F 23.4 °F 14.0 °F 44% 30.11 in 10.0 mi SSW 17.3 mph 26.5 mph N/A   Mostly Cloudy
4:53 PM 33.1 °F 21.9 °F 17.1 °F 52% 30.07 in 10.0 mi SSW 18.4 mph 28.8 mph N/A   Mostly Cloudy
5:53 PM 33.1 °F 22.2 °F 19.0 °F 56% 30.04 in 10.0 mi South 17.3 mph 25.3 mph N/A   Clear
6:53 PM 34.0 °F 23.4 °F 19.9 °F 56% 30.01 in 10.0 mi SSW 17.3 mph 27.6 mph N/A   Clear
7:53 PM 35.1 °F 24.8 °F 19.9 °F 54% 30.01 in 10.0 mi SSW 17.3 mph 31.1 mph N/A   Clear
8:53 PM 36.0 °F 26.0 °F 19.0 °F 50% 30.01 in 10.0 mi SSW 17.3 mph 25.3 mph N/A   Clear
9:53 PM 35.1 °F 24.8 °F 19.0 °F 52% 29.99 in 10.0 mi SW 17.3 mph 28.8 mph N/A   Clear
10:53 PM 35.1 °F 25.9 °F 19.0 °F 52% 29.95 in 10.0 mi SSW 13.8 mph 27.6 mph N/A   Clear
11:53 PM 37.0 °F 26.2 °F 21.0 °F 52% 29.93 in 10.0 mi SSW 21.9 mph 31.1 mph N/A   Clear